User: anonymous   Login
Location: Mount Tamalpais State Park
(37.9108°N, 122.6128°W)
Time: 10:05:01
(UTC-08:00)
Language:

Cosmos 1814 Rocket - Orbit

View from above orbital plane
View from above orbital plane
View from above satellite
View from above satellite

Ground track
Ground track

The orbit data is extracted from the following two-line orbital elements,

1 17304U 87006B   17059.81323878  .00000033  00000-0  19475-4 0  9994
2 17304  74.0584 289.8639 0029440 157.7647 202.4791 14.37594605577723
Epoch (UTC): 28 February 2017 19:31:03
Eccentricity: 0.0029440
inclination: 74.0584°
perigee height: 745 km
apogee height: 787 km
right ascension of ascending node: 289.8639°
argument of perigee: 157.7647°
revolutions per day: 14.37594605
mean anomaly at epoch: 202.4791°
orbit number at epoch: 57772

The dashed part of the orbit path shows where the satellite is in the earth's shadow,  

DLR